Regional Weather Roundup
Issued by NWS

Home | Current Version | Previous Version | Text Only | Print | Product List | Glossary Off
Versions: 1 2 3 4 5 6 7 8 9 10 11 12 13 14 15 16 17 18 19 20 21 22 23 24 25 26 27

000
ASUS45 KBOU 211807
RWRCO

WEATHER ROUNDUP FOR COLORADO
NATIONAL WEATHER SERVICE DENVER/BOULDER CO
1200 PM MDT WED JUN 21 2017

NOTE: "FAIR" INDICATES FEW OR NO CLOUDS BELOW 12000 FEET WITH NO
SIGNIFICANT WEATHER AND/OR OBSTRUCTIONS TO VISIBILITY.

COZ001>005-013-030-031-211900-
...NORTHWEST COLORADO...

CITY           SKY/WX    TMP DP  RH WIND       PRES   REMARKS
CRAIG          FAIR      86  37  17 S6        30.17F
HAYDEN         FAIR      81  37  21 W6        30.21F
MEEKER         FAIR      86  39  19 S7        30.19F
RABBIT EARS PA FAIR      64  37  36 W10G17    30.53F
STEAMBOAT SPGS FAIR      78  42  27 SW6       30.23F
WALDEN         FAIR      77  30  18 W17G23    30.32F
$$

COZ006>008-011-211900-
...WEST CENTRAL VALLEYS...

CITY           SKY/WX    TMP DP  RH WIND       PRES   REMARKS
GRAND JUNCTION FAIR      92  41  17 SW5       30.05F
MONTROSE       FAIR      91  36  14 E3        30.13F
EAGLE          SUNNY     84  41  21 CALM      30.22F
RIFLE          FAIR      89  37  16 SW6       30.12F
DELTA          FAIR      92  36  14 SW5       30.08F
NUCLA          FAIR      91  32  12 N8        30.18F
$$

COZ017>023-064>068-211900-
...SOUTHWEST COLORADO...

CITY           SKY/WX    TMP DP  RH WIND       PRES   REMARKS
DURANGO        FAIR      86  39  19 VRB5      30.21F
CORTEZ         FAIR      92  35  13 S7        30.15F
PAGOSA SPRINGS FAIR      81  32  17 CALM      30.30F
TELLURIDE      FAIR      80  26  14 W10       30.43F
WOLF CREEK PAS PTSUNNY   59  34  38 S10       30.70S
$$

COZ009-010-012-014-032>034-037-058>063-211900-
...CENTRAL COLORADO...

CITY           SKY/WX    TMP DP  RH WIND       PRES   REMARKS
ASPEN          FAIR      81  36  19 N12       30.29F
BUENA VISTA    FAIR      85  20   9 W15G28    30.27F
COPPER MTN     FAIR      64  27  24 NW9G23    30.66R
BERTHOUD PASS  FAIR      54  41  62 NW30G44   30.66S
COTTONWOOD PAS FAIR      79  18  10 CALM      30.45S
GUNNISON       FAIR      78  42  27 W7        30.29F
KREMMLING      NOT AVBL
LEADVILLE      FAIR      73  22  14 NW16G24   30.46R
MONARCH PASS   FAIR      64  32  29 W21G30    30.75S
SALIDA         FAIR      88  30  12 SW3G9     30.30F
SUNLIGHT       FAIR      66  32  28 W3        30.59S
WILKERSON PASS FAIR      72  21  15 W7G22     30.60S
$$

COZ069>075-211900-
...SAN LUIS VALLEY/SANGRE DE CRISTO MOUNTAINS...

CITY           SKY/WX    TMP DP  RH WIND       PRES   REMARKS
ALAMOSA        FAIR      81  46  29 SE7       30.26F
DEL NORTE      FAIR      80  44  27 E7        30.30F
LA VETA PASS   FAIR      75  36  23 MISG      30.60F
SAGUACHE       FAIR      81  41  24 SW5       30.29F
$$

COZ035-036-038>040-211900-
...NORTHERN COLORADO FRONT RANGE...

CITY           SKY/WX    TMP DP  RH WIND       PRES   REMARKS
DENVER INTL AP FAIR      93  36  13 NW9G20    30.06F
DMNS CITY PARK   N/A     91  38  15 N2G13     30.05F
AURORA         MOSUNNY   90  37  15 CALM      30.08F
FRONT RANGE AP FAIR      91  36  14 NW13      30.08F
ERIE MUNI ARPT FAIR      91  33  12 NW6       30.04S
BOULDER MUN AP FAIR      91  41  17 E5        30.04F
CENTENNIAL     FAIR      89  36  15 NE10      30.10F
BROOMFIELD     MOSUNNY   91  37  15 VRB6      30.09S
FORT COLLINS   FAIR      93  40  15 N16       30.02F
LONGMONT       FAIR      96  38  13 S5        30.03F
$$

COZ041-046-047-076>085-087-088-211900-
...PIKES PEAK/PALMER DIVIDE AND SOUTHERN FOOTHILLS...

CITY           SKY/WX    TMP DP  RH WIND       PRES   REMARKS
COLO. SPRINGS  FAIR      91  35  13 N13G21    30.11F
A. F. ACADEMY  FAIR      89  35  15 N14G21    30.12F
SCHRIEVER AFB  FAIR      90  34  13 N13G20    30.12S
CHEYENNE MTN   FAIR      86  33  15 NE5       30.12F
ELLICOTT       FAIR     N/A N/A N/A E12G20    30.10S
FALCON           N/A     90  32  12 NW9G20    30.19S
FORT CARSON    PTSUNNY   93  34  12 N12       30.07F
LIMON          FAIR      93  36  13 NW16G25   30.05S
MONUMENT HILL  FAIR      82  37  20 N10G16    30.22F
CANON CITY     SUNNY     99  37  12 SW10G21   30.02F
WALSENBURG     FAIR      95  37  13 SW13G20   30.09F
TRINIDAD       FAIR      95  37  13 MISG      30.07F
$$

COZ042>045-048>051-090-091-211900-
...NORTHEAST COLORADO...

CITY           SKY/WX    TMP DP  RH WIND       PRES   REMARKS
GREELEY ARPT   FAIR      94  38  14 NW17G29   30.00S
AKRON          FAIR      95  39  14 W17G25    29.97F
BURLINGTON     FAIR      97  49  19 NW15G22   29.93F
WRAY           FAIR     102  39  11 NW15G23   29.87F
YUMA           FAIR      95  43  16 NW16G22   29.92F
STERLING       FAIR      97  41  14 N13G22    29.89F
HOLYOKE        NOT AVBL
FORT MORGAN    FAIR      95  32  10 NW16G29   29.97F
$$

COZ086-089-092>099-211900-
...SOUTHEAST COLORADO...

CITY           SKY/WX    TMP DP  RH WIND       PRES   REMARKS
PUEBLO         FAIR      99  41  13 SW14G21   29.96F
LA JUNTA       FAIR      96  52  22 W7        29.94F
LAMAR          FAIR      99  53  21 VRB3      29.88F
SPRINGFIELD      N/A     96  48  19 CALM      29.94F
$$




USA.gov is the U.S. government's official web portal to all federal, state and local government web resources and services.